Location: Cercedilla
(40.7379°N, 4.0638°W)
Time: 22:05:38
(UTC+00:00)

CZ-4 R/B - Pass Details

Date: 07 June 2020
Orbit: 681 x 753 km, 98.5° (Epoch: 07 July)

Event Time Altitude Azimuth Distance (km) Brightness Sun altitude
Rises 00:18:20 0° 17° (NNE) 3,087 8.3 -26.5°
Reaches altitude 10° 00:20:38 10° 21° (NNE) 2,156 7.2 -26.5°
Enters shadow 00:24:49 55° 75° (ENE) 828 4.2 -26.4°
